Conway, SC

11:15 PM EST on November 19, 2017 (GMT -0500)
Conway-Horry County

Weather History for KHYW - June, 2013

Change the Weather History Date:

Friday, June 14, 2013

  Actual Average Record
Temperature  
Mean Temperature 73 °F -  
Max Temperature 82 °F 87 °F 96 °F (2015)
Min Temperature 64 °F 65 °F 62 °F (2012)
Cooling Degree Days 8    
Growing Degree Days 23 (Base 50)    
Moisture  
Dew Point 64 °F    
Average Humidity 72    
Maximum Humidity 100    
Minimum Humidity 39    
Precipitation  
Precipitation 0.03 in - - ()
Sea Level Pressure  
Sea Level Pressure 29.86 in    
Wind  
Wind Speed 3 mph (North)    
Max Wind Speed 12 mph    
Max Gust Speed 18 mph    
Visibility 7 miles    
Events Rain , Thunderstorm    
Averages and records for this station are not official NWS values.
T = Trace of Precipitation, MM = Missing Value Source: NWS Daily Summary

Daily Weather History Graph

Daily Weather History Graph

Search for Another Location

Airport or City:

Trip Planner

Search our weather history database for the weather conditions in past years. The results will help you decide how hot, cold, wet, or windy it might be!

Date:

Astronomy

Jun. 14, 2013 Rise Set
Actual Time 6:05 AM EDT 8:28 PM EDT
Civil Twilight 5:36 AM EDT 8:57 PM EDT
Nautical Twilight 5:00 AM EDT 9:33 PM EDT
Astronomical Twilight 4:21 AM EDT 10:12 PM EDT
Moon 11:25 AM EDT (6/14) No Moon Set
Length of Visible Light 15h 21m
Length of Day
14h 23m
Waxing Crescent, 30% of the Moon is Illuminated
Jun 14
Waxing Crescent
Jun 16
First Quarter
Jun 23
Full
Jun 30
Last Quarter
Jul 8
New

Hourly Weather History & Observations

Time (EDT) Temp. Heat Index Dew Point Humidity Pressure Visibility Wind Dir Wind Speed Gust Speed Precip Events Conditions
12:15 AM 80.6 °F 84.6 °F 71.6 °F 74% 29.77 in 10.0 mi WNW 8.1 mph - 0.05 in Rain , Thunderstorm Heavy Thunderstorms and Rain
12:35 AM 75.2 °F - 75.2 °F 100% 29.76 in 7.0 mi WNW 3.5 mph - 0.02 in Rain , Thunderstorm Thunderstorms and Rain
12:55 AM 73.4 °F - 73.4 °F 100% 29.75 in 5.0 mi Calm Calm - 0.03 in   Scattered Clouds
1:35 AM 73.4 °F - 73.4 °F 100% 29.75 in 7.0 mi Calm Calm - N/A   Unknown
1:55 AM 71.6 °F - 71.6 °F 100% 29.76 in 7.0 mi Calm Calm - N/A Thunderstorm Thunderstorm
2:15 AM 71.6 °F - 71.6 °F 100% 29.76 in 10.0 mi Calm Calm - N/A Rain Light Rain
2:35 AM 71.6 °F - 71.6 °F 100% 29.75 in 5.0 mi Calm Calm - N/A   Scattered Clouds
2:55 AM 71.6 °F - 71.6 °F 100% 29.75 in 5.0 mi Calm Calm - N/A   Mostly Cloudy
3:15 AM 71.6 °F - 71.6 °F 100% 29.75 in 7.0 mi Calm Calm - N/A   Scattered Clouds
3:35 AM 71.6 °F - 71.6 °F 100% 29.75 in 7.0 mi Calm Calm - N/A   Mostly Cloudy
3:55 AM 71.6 °F - 71.6 °F 100% 29.76 in 7.0 mi Calm Calm - N/A   Mostly Cloudy
4:15 AM 71.6 °F - 71.6 °F 100% 29.76 in 7.0 mi Calm Calm - N/A   Scattered Clouds
4:35 AM 71.6 °F - 71.6 °F 100% 29.76 in 7.0 mi Calm Calm - N/A   Clear
4:55 AM 71.6 °F - 71.6 °F 100% 29.77 in 7.0 mi Calm Calm - N/A   Clear
5:15 AM 71.6 °F - 71.6 °F 100% 29.78 in 7.0 mi Calm Calm - N/A   Clear
5:35 AM 69.8 °F - 69.8 °F 100% 29.78 in 7.0 mi North 3.5 mph - N/A   Clear
5:55 AM 69.8 °F - 69.8 °F 100% 29.80 in 7.0 mi Calm Calm - N/A   Clear
6:15 AM 69.8 °F - 69.8 °F 100% 29.80 in 5.0 mi Calm Calm - N/A   Clear
6:35 AM 68.0 °F - 68.0 °F 100% 29.81 in 7.0 mi Calm Calm - N/A   Scattered Clouds
6:55 AM 69.8 °F - 69.8 °F 100% 29.82 in 4.0 mi Calm Calm - N/A   Scattered Clouds
7:15 AM 69.8 °F - 69.8 °F 100% 29.83 in 5.0 mi Calm Calm - N/A   Clear
7:35 AM 69.8 °F - 66.2 °F 88% 29.83 in 5.0 mi Calm Calm - N/A   Clear
7:55 AM 71.6 °F - 64.4 °F 78% 29.83 in 7.0 mi Calm Calm - N/A   Clear
8:15 AM 71.6 °F - 62.6 °F 73% 29.84 in 7.0 mi NNW 3.5 mph - N/A   Clear
8:35 AM 71.6 °F - 60.8 °F 69% 29.85 in 7.0 mi North 4.6 mph - N/A   Clear
8:55 AM 73.4 °F - 60.8 °F 65% 29.85 in 7.0 mi NNW 8.1 mph - N/A   Clear
9:15 AM 75.2 °F - 60.8 °F 61% 29.86 in 7.0 mi North 4.6 mph - N/A   Clear
9:35 AM 75.2 °F - 59.0 °F 57% 29.85 in 7.0 mi NNW 5.8 mph - N/A   Clear
9:55 AM 77.0 °F - 59.0 °F 54% 29.86 in 5.0 mi North 4.6 mph - N/A   Haze
10:15 AM 77.0 °F - 59.0 °F 54% 29.86 in 7.0 mi NNW 5.8 mph - N/A   Clear
10:35 AM 77.0 °F - 59.0 °F 54% 29.86 in 7.0 mi North 9.2 mph - N/A   Clear
10:55 AM 78.8 °F - 57.2 °F 47% 29.86 in 7.0 mi North 10.4 mph 17.3 mph N/A   Clear
11:15 AM 78.8 °F - 57.2 °F 47% 29.87 in 7.0 mi NNE 8.1 mph 16.1 mph N/A   Clear
11:35 AM 78.8 °F - 59.0 °F 51% 29.87 in 7.0 mi North 10.4 mph 16.1 mph N/A   Clear
11:55 AM 78.8 °F - 59.0 °F 51% 29.86 in 5.0 mi NW 6.9 mph - N/A   Haze
12:15 PM 80.6 °F 81.1 °F 59.0 °F 48% 29.87 in 7.0 mi North 9.2 mph - N/A   Clear
12:35 PM 80.6 °F 81.1 °F 59.0 °F 48% 29.87 in 7.0 mi North 6.9 mph - N/A   Clear
12:55 PM 80.6 °F 80.8 °F 57.2 °F 45% 29.88 in 5.0 mi NNW 8.1 mph 18.4 mph N/A   Haze
1:15 PM 80.6 °F 80.8 °F 57.2 °F 45% 29.88 in 7.0 mi NNW 6.9 mph - N/A   Clear
1:35 PM 82.4 °F 82.0 °F 57.2 °F 42% 29.87 in 5.0 mi NW 5.8 mph - N/A   Haze
1:55 PM 82.4 °F 82.5 °F 59.0 °F 45% 29.87 in 7.0 mi North 9.2 mph - N/A   Scattered Clouds
2:15 PM 82.4 °F 82.5 °F 59.0 °F 45% 29.87 in 7.0 mi NNE 11.5 mph 18.4 mph N/A   Scattered Clouds
2:35 PM 82.4 °F 82.0 °F 57.2 °F 42% 29.88 in 5.0 mi NNW 5.8 mph 17.3 mph N/A   Haze
2:55 PM 82.4 °F 82.5 °F 59.0 °F 45% 29.89 in 5.0 mi North 8.1 mph - N/A   Haze
3:15 PM 82.4 °F 81.7 °F 55.4 °F 39% 29.88 in 7.0 mi North 4.6 mph - N/A   Scattered Clouds
3:35 PM 82.4 °F 82.5 °F 59.0 °F 45% 29.88 in 7.0 mi NNW 8.1 mph - N/A   Scattered Clouds
3:55 PM 80.6 °F 80.5 °F 55.4 °F 42% 29.89 in 7.0 mi North 4.6 mph - N/A   Scattered Clouds
4:15 PM 82.4 °F 82.0 °F 57.2 °F 42% 29.89 in 5.0 mi NNW 4.6 mph - N/A   Haze
4:35 PM 82.4 °F 82.5 °F 59.0 °F 45% 29.89 in 7.0 mi NNE 6.9 mph - N/A   Mostly Cloudy
4:55 PM 82.4 °F 82.5 °F 59.0 °F 45% 29.90 in 7.0 mi North 8.1 mph - N/A   Mostly Cloudy
5:15 PM 82.4 °F 82.0 °F 57.2 °F 42% 29.90 in 7.0 mi North 4.6 mph - N/A   Scattered Clouds
5:35 PM 82.4 °F 82.0 °F 57.2 °F 42% 29.90 in 5.0 mi North 6.9 mph - N/A   Haze
5:55 PM 82.4 °F 81.7 °F 55.4 °F 39% 29.90 in 7.0 mi North 5.8 mph - N/A   Scattered Clouds
6:15 PM 80.6 °F 81.1 °F 59.0 °F 48% 29.91 in 7.0 mi North 6.9 mph - N/A   Scattered Clouds
6:35 PM 80.6 °F 81.1 °F 59.0 °F 48% 29.91 in 7.0 mi NNE 8.1 mph - N/A   Scattered Clouds
6:55 PM 80.6 °F 81.1 °F 59.0 °F 48% 29.91 in 5.0 mi North 6.9 mph - N/A   Haze
7:15 PM 80.6 °F 81.1 °F 59.0 °F 48% 29.92 in 7.0 mi North 4.6 mph - N/A   Clear
7:35 PM 78.8 °F - 60.8 °F 54% 29.92 in 4.0 mi North 4.6 mph - N/A   Haze
7:55 PM 75.2 °F - 62.6 °F 65% 29.93 in 7.0 mi Calm Calm - N/A   Clear
8:15 PM 71.6 °F - 64.4 °F 78% 29.94 in 5.0 mi Calm Calm - N/A   Haze
8:35 PM 69.8 °F - 64.4 °F 83% 29.94 in 7.0 mi Calm Calm - N/A   Clear
8:55 PM 69.8 °F - 64.4 °F 83% 29.96 in 7.0 mi Calm Calm - N/A   Clear
9:15 PM 69.8 °F - 62.6 °F 78% 29.96 in 10.0 mi Calm Calm - N/A   Scattered Clouds
9:35 PM 68.0 °F - 64.4 °F 88% 29.96 in 10.0 mi Calm Calm - N/A   Scattered Clouds
9:55 PM 68.0 °F - 64.4 °F 88% 29.97 in 10.0 mi Calm Calm - N/A   Clear
10:15 PM 68.0 °F - 68.0 °F 100% 29.99 in 10.0 mi Calm Calm - N/A   Clear
10:35 PM 66.2 °F - 66.2 °F 100% 30.00 in 10.0 mi Calm Calm - N/A   Clear
10:55 PM 66.2 °F - 66.2 °F 100% 30.00 in 10.0 mi Calm Calm - N/A   Clear
11:15 PM 64.4 °F - 64.4 °F 100% 30.01 in 10.0 mi Calm Calm - N/A   Clear
11:35 PM 64.4 °F - 64.4 °F 100% 30.01 in 10.0 mi Calm Calm - N/A   Clear
11:55 PM 64.4 °F - 64.4 °F 100% 30.02 in 7.0 mi Calm Calm - N/A   Clear